Location: Observatory
(52.1446°N, 0.4624°W)
Time: 06:46:02
(UTC+01:00)

ISS - Pass Details

Date: 28 March 2019
Orbit: 408 x 410 km, 51.6° (Epoch: 26 April)

Event Time Altitude Azimuth Distance (km) Brightness Sun altitude
Rises 19:51:36 0° 263° (W) 2,336 1.1 -13.1°
Reaches altitude 10° 19:53:41 10° 262° (W) 1,475 0.0 -13.4°
Maximum altitude 19:57:00 82° 175° (S) 419 -3.9 -13.9°
Enters shadow 19:58:39 27° 90° (E) 821 -2.8 -14.1°
